This is the latest recevied weather packets stored in our database for station/object DC1SK-6. If no packets are shown the sender has not sent any weather packets the latest 10 day(s).
| Time | Temp. | Humidity | Pressure | Rain* | Wind** | Luminosity | Snow |
|---|---|---|---|---|---|---|---|
| 1777490944 | 7.78° C | 53% | - | 0 mm | - | 0 W/m² | - |
| 1777490354 | 8.33° C | 52% | - | 0 mm | - | 0 W/m² | - |
| 1777489769 | 8.33° C | 50% | - | 0 mm | - | 0 W/m² | - |
| 1777489219 | 8.89° C | 49% | - | 0 mm | - | 0 W/m² | - |
| 1777488694 | 10° C | 46% | - | 0 mm | - | 0 W/m² | - |
| 1777488154 | 10° C | 46% | - | 0 mm | - | 0 W/m² | - |
| 1777487644 | 10.56° C | 46% | - | 0 mm | - | 1 W/m² | - |
| 1777487129 | 10.56° C | 43% | - | 0 mm | - | 3 W/m² | - |
| 1777486639 | 11.11° C | 42% | - | 0 mm | - | 6 W/m² | - |
| 1777486114 | 11.67° C | 41% | - | 0 mm | - | 10 W/m² | - |
| 1777485564 | 11.67° C | 40% | - | 0 mm | - | 14 W/m² | - |
| 1777485074 | 11.67° C | 40% | - | 0 mm | - | 17 W/m² | - |
| 1777484484 | 12.22° C | 40% | - | 0 mm | - | 21 W/m² | - |
| 1777483919 | 12.22° C | 40% | - | 0 mm | - | 25 W/m² | - |
| 1777483424 | 12.22° C | 39% | - | 0 mm | - | 27 W/m² | - |
| 1777482849 | 12.78° C | 39% | - | 0 mm | - | 29 W/m² | - |
| 1777482274 | 12.78° C | 39% | - | 0 mm | - | 31 W/m² | - |
| 1777481788 | 12.78° C | 40% | - | 0 mm | - | 32 W/m² | - |
| 1777481291 | 13.33° C | 38% | - | 0 mm | - | 36 W/m² | - |
| 1777480749 | 13.33° C | 39% | - | 0 mm | - | 36 W/m² | - |
| 1777480224 | 13.33° C | 38% | - | 0 mm | - | 39 W/m² | - |
| 1777479729 | 13.33° C | 37% | - | 0 mm | - | 136 W/m² | - |
| 1777479239 | 13.89° C | 38% | - | 0 mm | - | 148 W/m² | - |
| 1777478694 | 13.89° C | 37% | - | 0 mm | - | 176 W/m² | - |
| 1777478214 | 13.89° C | 38% | - | 0 mm | - | 193 W/m² | - |
* Rain latest hour (hover to see other rain measurements)
** Current wind speed in m/s (hover to see current wind gust speed)